When you browse on this site, cookies collect data to enhance your experience and personalize the content and advertising you see.
Visit our Privacy Policy to learn more. By continuing to use the site, you agree to this use of cookies and data.
  • In Slovakia
  • List of Countries
  • For 7 days
  • Water Temperature
  • Weather Map
  • Weather Widgets
  • user-avatar
    Login

    Hourly Weather Kalandra

    Today, 14 October, Monday

    Time Temperature Precipitation Wind Pressure Humidity
    00:00 +22°C° 0 mm 1 mps 765 mmHg 75%
    01:00 +22°C° 0 mm 1 mps 765 mmHg 75%
    02:00 +22°C° 0 mm 1 mps 765 mmHg 76%
    03:00 +21°C° 0 mm 1 mps 765 mmHg 77%
    04:00 +21°C° 0 mm 1 mps 764 mmHg 77%
    05:00 +21°C° 0 mm 1 mps 764 mmHg 78%
    06:00 +22°C° 0 mm 1 mps 764 mmHg 76%
    07:00 +22°C° 0 mm 1 mps 765 mmHg 74%
    08:00 +22°C° 0 mm 1 mps 765 mmHg 72%
    09:00 +23°C° 0 mm 1 mps 765 mmHg 68%
    10:00 +24°C° 0 mm 1 mps 765 mmHg 64%
    11:00 +25°C° 0 mm 1 mps 765 mmHg 60%
    12:00 +25°C° 0 mm 1 mps 764 mmHg 59%
    13:00 +25°C° 0 mm 1 mps 764 mmHg 59%
    14:00 +26°C° 0 mm 1 mps 764 mmHg 58%
    15:00 +25°C° 0 mm 1 mps 763 mmHg 61%
    16:00 +24°C° 0 mm 1 mps 763 mmHg 65%
    17:00 +24°C° 0 mm 1 mps 762 mmHg 69%
    18:00 +23°C° 0 mm 1 mps 763 mmHg 72%
    19:00 +23°C° 0 mm 1 mps 763 mmHg 76%
    20:00 +20°C° 0 mm 0 mps 763 mmHg 79%
    21:00 +20°C° 0 mm 0 mps 763 mmHg 78%
    22:00 +20°C° 0 mm 0 mps 763 mmHg 76%
    23:00 +20°C° 0 mm 0 mps 763 mmHg 75%

    Tomorrow, 15 October, Tuesday

    Time Temperature Precipitation Wind Pressure Humidity
    00:00 +20°C° 0 mm 0 mps 763 mmHg 71%
    01:00 +22°C° 0 mm 1 mps 763 mmHg 67%
    02:00 +22°C° 0 mm 1 mps 763 mmHg 63%
    03:00 +22°C° 0 mm 1 mps 763 mmHg 62%
    04:00 +21°C° 0 mm 1 mps 762 mmHg 61%
    05:00 +21°C° 0 mm 1 mps 762 mmHg 59%
    06:00 +22°C° 0 mm 1 mps 762 mmHg 59%
    07:00 +22°C° 0 mm 1 mps 762 mmHg 59%
    08:00 +22°C° 0 mm 1 mps 763 mmHg 59%
    09:00 +23°C° 0 mm 1 mps 762 mmHg 56%
    10:00 +24°C° 0 mm 1 mps 762 mmHg 53%
    11:00 +25°C° 0 mm 1 mps 762 mmHg 50%
    12:00 +25°C° 0 mm 1 mps 762 mmHg 51%
    13:00 +25°C° 0 mm 1 mps 761 mmHg 52%
    14:00 +25°C° 0 mm 1 mps 761 mmHg 53%
    15:00 +25°C° 0 mm 1 mps 761 mmHg 55%
    16:00 +25°C° 0 mm 1 mps 760 mmHg 57%
    17:00 +24°C° 0 mm 1 mps 760 mmHg 60%
    18:00 +24°C° 0 mm 1 mps 760 mmHg 62%
    19:00 +23°C° 0 mm 1 mps 760 mmHg 64%
    20:00 +22°C° 0 mm 1 mps 761 mmHg 67%
    21:00 +22°C° 0 mm 1 mps 761 mmHg 67%
    22:00 +22°C° 0 mm 1 mps 761 mmHg 67%
    23:00 +20°C° 0 mm 0 mps 761 mmHg 67%

    Day after tomorrow, 16 October, Wednesday

    Time Temperature Precipitation Wind Pressure Humidity
    00:00 +20°C° 0 mm 0 mps 761 mmHg 67%
    01:00 +22°C° 0 mm 1 mps 761 mmHg 66%
    02:00 +22°C° 0 mm 1 mps 761 mmHg 66%
    03:00 +22°C° 0 mm 1 mps 761 mmHg 66%
    04:00 +21°C° 0 mm 1 mps 760 mmHg 66%
    05:00 +21°C° 0 mm 1 mps 760 mmHg 66%
    06:00 +22°C° 0 mm 1 mps 761 mmHg 65%
    07:00 +22°C° 0 mm 1 mps 761 mmHg 64%
    08:00 +22°C° 0 mm 1 mps 761 mmHg 62%
    09:00 +24°C° 0 mm 1 mps 761 mmHg 59%
    10:00 +25°C° 0 mm 1 mps 761 mmHg 55%
    11:00 +26°C° 0 mm 1 mps 761 mmHg 52%
    12:00 +25°C° 0 mm 1 mps 761 mmHg 54%
    13:00 +25°C° 0 mm 1 mps 760 mmHg 56%
    14:00 +25°C° 0 mm 1 mps 760 mmHg 58%
    15:00 +25°C° 0 mm 1 mps 760 mmHg 60%
    16:00 +24°C° 0 mm 1 mps 760 mmHg 62%
    17:00 +24°C° 0 mm 1 mps 759 mmHg 64%
    18:00 +23°C° 0 mm 1 mps 760 mmHg 67%
    19:00 +23°C° 0 mm 1 mps 760 mmHg 69%
    20:00 +22°C° 0 mm 1 mps 760 mmHg 72%
    21:00 +22°C° 0 mm 1 mps 761 mmHg 72%
    22:00 +22°C° 0 mm 1 mps 761 mmHg 72%
    23:00 +22°C° 0 mm 1 mps 761 mmHg 71%

    17 October, Thursday

    Time Temperature Precipitation Wind Pressure Humidity
    00:00 +22°C° 0 mm 1 mps 761 mmHg 71%
    01:00 +22°C° 0 mm 1 mps 761 mmHg 71%
    02:00 +22°C° 0 mm 1 mps 761 mmHg 71%
    03:00 +22°C° 0 mm 1 mps 761 mmHg 70%
    04:00 +22°C° 0 mm 1 mps 761 mmHg 69%
    05:00 +22°C° 0 mm 1 mps 761 mmHg 68%
    06:00 +22°C° 0 mm 1 mps 761 mmHg 67%
    07:00 +22°C° 0 mm 1 mps 761 mmHg 66%
    08:00 +22°C° 0 mm 1 mps 761 mmHg 65%
    09:00 +23°C° 0 mm 1 mps 761 mmHg 62%
    10:00 +24°C° 0 mm 1 mps 762 mmHg 59%
    11:00 +25°C° 0 mm 1 mps 762 mmHg 55%
    12:00 +25°C° 0 mm 1 mps 761 mmHg 56%
    13:00 +25°C° 0 mm 1 mps 761 mmHg 57%
    14:00 +25°C° 0 mm 1 mps 761 mmHg 58%
    15:00 +25°C° 0 mm 1 mps 761 mmHg 60%
    16:00 +24°C° 0 mm 2 mps 761 mmHg 63%
    17:00 +24°C° 0 mm 2 mps 761 mmHg 66%
    18:00 +23°C° 0 mm 2 mps 761 mmHg 68%
    19:00 +23°C° 0 mm 2 mps 761 mmHg 70%
    20:00 +21°C° 0 mm 2 mps 761 mmHg 72%
    21:00 +22°C° 0 mm 1 mps 761 mmHg 73%
    22:00 +22°C° 0 mm 1 mps 762 mmHg 73%
    23:00 +22°C° 0 mm 1 mps 762 mmHg 74%

    18 October, Friday

    Time Temperature Precipitation Wind Pressure Humidity
    00:00 +22°C° 0 mm 1 mps 762 mmHg 74%
    01:00 +22°C° 0 mm 1 mps 762 mmHg 74%
    02:00 +22°C° 0 mm 1 mps 761 mmHg 74%
    03:00 +22°C° 0 mm 1 mps 761 mmHg 73%
    04:00 +21°C° 0 mm 1 mps 762 mmHg 71%
    05:00 +19°C° 0 mm 0 mps 762 mmHg 70%
    06:00 +22°C° 0 mm 1 mps 762 mmHg 68%
    07:00 +22°C° 0 mm 1 mps 762 mmHg 65%
    08:00 +22°C° 0 mm 1 mps 762 mmHg 63%
    09:00 +23°C° 0 mm 1 mps 762 mmHg 59%
    10:00 +24°C° 0 mm 1 mps 762 mmHg 55%
    11:00 +25°C° 0 mm 1 mps 762 mmHg 51%
    12:00 +25°C° 0 mm 1 mps 762 mmHg 53%
    13:00 +25°C° 0 mm 1 mps 761 mmHg 54%
    14:00 +25°C° 0 mm 1 mps 761 mmHg 56%
    15:00 +25°C° 0 mm 1 mps 761 mmHg 58%
    16:00 +24°C° 0 mm 1 mps 761 mmHg 61%
    17:00 +23°C° 0 mm 1 mps 761 mmHg 63%
    18:00 +23°C° 0 mm 1 mps 761 mmHg 65%
    19:00 +23°C° 0 mm 1 mps 761 mmHg 67%
    20:00 +22°C° 0 mm 1 mps 761 mmHg 69%
    21:00 +22°C° 0 mm 1 mps 761 mmHg 68%
    22:00 +22°C° 0 mm 1 mps 761 mmHg 67%
    23:00 +22°C° 0 mm 1 mps 762 mmHg 66%

    19 October, Saturday

    Time Temperature Precipitation Wind Pressure Humidity
    00:00 +22°C° 0 mm 1 mps 762 mmHg 64%
    01:00 +22°C° 0 mm 1 mps 761 mmHg 61%
    02:00 +22°C° 0 mm 1 mps 761 mmHg 59%
    03:00 +21°C° 0 mm 1 mps 761 mmHg 60%
    04:00 +21°C° 0 mm 1 mps 761 mmHg 61%
    05:00 +21°C° 0 mm 1 mps 761 mmHg 62%
    06:00 +21°C° 0 mm 1 mps 762 mmHg 63%
    07:00 +22°C° 0 mm 1 mps 762 mmHg 65%
    08:00 +22°C° 0 mm 1 mps 762 mmHg 66%
    09:00 +23°C° 0 mm 1 mps 762 mmHg 62%
    10:00 +24°C° 0 mm 1 mps 762 mmHg 57%
    11:00 +25°C° 0 mm 1 mps 762 mmHg 53%
    12:00 +25°C° 0 mm 1 mps 762 mmHg 54%
    13:00 +25°C° 0 mm 1 mps 762 mmHg 55%
    14:00 +24°C° 0 mm 1 mps 761 mmHg 56%
    15:00 +24°C° 0 mm 1 mps 761 mmHg 57%
    16:00 +23°C° 0 mm 2 mps 761 mmHg 59%
    17:00 +23°C° 0 mm 2 mps 761 mmHg 61%
    18:00 +23°C° 0 mm 2 mps 761 mmHg 62%
    19:00 +21°C° 0 mm 2 mps 761 mmHg 64%
    20:00 +21°C° 0 mm 2 mps 762 mmHg 66%
    21:00 +22°C° 0 mm 1 mps 762 mmHg 65%
    22:00 +22°C° 0 mm 1 mps 762 mmHg 65%
    23:00 +22°C° 0 mm 1 mps 762 mmHg 64%
    Show more